Location: Tierra del Sol
(32.6128°N, 116.3319°W)
Time: 11:11:02
(UTC-07:00)

Tiangong 1 - Pass Details

Date: 09 October 2017
Orbit: 293 x 320 km, 42.8° (Epoch: 20 October)

Event Time Altitude Azimuth Distance (km) Brightness Sun altitude
Rises 19:12:02 0° 298° (WNW) 2,038 5.9 -11.9°
Maximum altitude 19:15:55 10° 355° (N) 1,189 3.6 -12.7°
Drops below altitude 10° 19:16:15 10° 2° (N) 1,197 3.5 -12.8°
Enters shadow 19:17:21 - 24° (NNE) 1,333 3.6 -13.0°
